星链-11484 (STARLINK-11484)

导读

STARLINK-11484是美国SpaceX公司于2024年12月8日发射的第二代小型星链卫星(Starlink v2.0 mini),隶属星链全球卫星互联网星座组网任务。作为小型二代星链,单星发射质量约790千克,相比第一代卫星拥有更高带宽与可靠性,运行于近地轨道,旨在为全球偏远地区提供高速低延迟宽带互联网接入服务。本次发射由可重复使用的猎鹰九号火箭执行,进一步扩大了星链星座在轨规模,助力星座完成全球组网部署,目前星链已在全球60多个国家和地区提供服务。

基本信息
目录编号:
62277
目录名称:
STARLINK-11484
国际标识:
2024-237L
轨道中心:
EARTH
卫星名称:
星链-11484
卫星全名:
星链-11484 (STARLINK-11484)
卫星状态:
在轨 (已飞行636 天)
发射日期:
2024-12-08 UTC
国别 :
美国 (US)
星等 :
--
轨道信息
数据来源 国际轨道数据
星历时间: 2026-09-05T03:41:22+0800
11小时前
查看轨道信息
半长轴: 6734.484km
偏心率: 0.000322
轨道倾角: 43.004°
近地点辐角 260.792°
升交点赤经 56.977°
平近点角 99.258°
近地点: 354.178km
远地点: 358.516km
周期: 91.668分钟
每日圈数: 15.708919
详细信息
固有亮度:
5
最大亮度:
2.5
卫星平台:
Starlink V1.0
覆盖范围:
全球
运营商:
太空探索技术公司
运营商所在国:
美国
制造商(研发单位):
太空探索技术公司
制造商所在国:
美国
使用方式:
暂无
卫星简介
Starlink 计划是 SpaceX 推出的全球卫星互联网项目,通过发射低轨道卫星,为全球尤其是偏远地区提供高速、低延迟的互联网服务。自 2019 年起,Starlink 已部署数千颗卫星,旨在缩小全球数字鸿沟,推动互联网普及。该项目还为军事、航空等行业提供通信支持,带来广泛经济效益。
2D轨道图
3D轨道图
轨道高度分析图
轨道倾角分析图
轨道综合分析图
查看轨道综合分析图